Location: Blue Mountain Vista Observatory
(40.6992°N, 75.9422°W)
Time: 10:24:52
(UTC-05:00)

Daily predictions for brighter satellites

Satellite Brightness Start Highest point End
(mag) Time Altitude Azimuth Time Altitude Azimuth Time Altitude Azimuth
Meteor 2-19 Rocket 4.4 16:55:35 10° N 17:01:40 75° E 17:07:41 10° SSE
Cosmos 2278 Rocket 2.2 17:00:11 10° SSW 17:05:50 79° ESE 17:11:30 10° NNE
Meteor 1-18 Rocket 4.3 17:00:58 10° S 17:06:33 67° E 17:12:18 10° NNE
USA 32 4.0 17:02:17 10° S 17:07:29 82° E 17:12:43 10° N
COSMOS 2487 3.2 17:05:15 10° N 17:08:33 33° ENE 17:11:50 10° SE
SL-8 R/B 4.1 17:04:17 10° WSW 17:08:59 57° NNW 17:13:42 10° NE
Okean 1 3.6 17:05:30 10° SSE 17:09:24 48° E 17:13:20 10° NNE
SMAP 3.2 17:10:13 10° SSE 17:14:43 53° ENE 17:19:16 10° N
Cosmos 1346 Rocket 3.3 17:11:41 10° SSE 17:15:18 37° E 17:18:54 10° NNE
Cosmos 1455 Rocket 3.1 17:14:33 10° N 17:19:00 88° ENE 17:23:27 10° S
Genesis I 3.1 17:16:20 10° NNW 17:20:18 80° ENE 17:24:11 10° SE
NOSS 2-1 (D) 4.1 17:18:55 10° S 17:22:22 34° ESE 17:25:54 11° NE
NOSS 2-1 (C) 4.1 17:19:35 10° S 17:23:04 34° ESE 17:26:32 12° NE
Cosmos 1833 Rocket 3.2 17:19:20 10° N 17:24:35 38° ENE 17:29:47 10° SE
Delta 2 Rocket 4.3 17:21:21 10° WSW 17:24:37 34° S 17:28:12 10° ESE
ISS -1.0 17:23:56 10° NW 17:25:46 14° N 17:27:38 10° NNE
Cosmos 1809 Rocket 4.5 17:25:23 10° N 17:31:27 59° E 17:37:27 10° SSE
IDEFIX/ARIANE 42P 2.5 17:26:33 10° SSE 17:31:44 80° ENE 17:36:56 10° N
Cosmos 2082 Rocket 2.4 17:26:15 10° NNW 17:31:46 50° ENE 17:37:16 10° SE
Thor Agena Rocket 3.6 17:31:13 10° NNE 17:36:28 88° ESE 17:41:46 10° SSW
Cosmos 1500 3.1 17:36:18 10° N 17:40:09 81° E 17:44:01 10° S
Cosmos 1743 3.2 17:36:38 10° N 17:40:15 36° ENE 17:43:49 10° SE
Tiangong 1 0.9 17:37:33 10° W 17:40:36 75° N 17:42:20 22° ENE
ASTRO F (AKARI) 4.3 17:38:33 10° NNE 17:41:39 54° E 17:44:45 10° S
NOSS 2-1 (E) 3.6 17:37:56 10° SSW 17:41:40 50° ESE 17:44:42 17° NE
TIMED 4.4 17:37:27 10° S 17:41:47 73° ESE 17:46:09 10° NNE
Okean 1-7 Rocket 3.9 17:37:44 10° SSE 17:42:00 45° E 17:46:16 10° NNE
Meteor 1-19 Rocket 4.5 17:40:36 10° SSE 17:46:10 50° E 17:51:49 10° NNE
Meteor 1-28 Rocket 4.5 17:46:16 21° ENE 17:47:00 22° E 17:49:59 10° SSE
Cosmos 1934 Rocket 4.5 17:43:28 10° N 17:49:07 35° ENE 17:54:50 10° SE
Cosmos 1484 Rocket 2.7 17:50:08 10° SSE 17:53:46 52° ENE 17:57:24 10° N
USA 234 3.5 17:53:20 14° NE 17:59:03 70° NW 18:05:32 10° WSW
Meteor 2-21 4.5 17:53:16 10° N 17:59:28 86° W 18:05:35 10° S
Cosmos 1975 4.1 17:56:05 10° NNW 17:59:57 44° W 18:03:47 10° SSW
CZ-4 R/B 3.5 18:02:38 10° SSW 18:06:19 30° W 18:09:57 10° NW
Cosmos 1606 Rocket 4.0 18:02:30 10° N 18:06:41 37° ENE 18:10:51 10° SE
Meteor 1-13 Rocket 4.3 18:02:49 10° S 18:08:30 85° W 18:14:23 10° N
MSX 4.1 18:03:28 10° S 18:09:12 73° WSW 18:14:58 10° NNW
Meteor 2-9 Rocket 4.2 18:04:37 10° N 18:09:51 48° ENE 18:14:59 10° SSE
Cosmos 2239 Rocket 4.4 18:03:52 10° N 18:10:03 67° E 18:16:09 10° SSE
Meteor 1-23 Rocket 4.4 18:04:42 10° SSE 18:10:10 49° E 18:14:52 14° NNE
Cosmos 2369 Rocket 3.8 18:06:39 10° SE 18:08:54 16° ESE 18:08:54 16° ESE
COSMO-SKYMED 1 2.5 18:09:50 11° NNE 18:13:58 84° E 18:18:19 10° SSW
Abrixas 2.9 18:11:18 10° WNW 18:14:13 58° SW 18:15:00 40° SSE
Meteor 2-4 Rocket 3.5 18:09:01 10° S 18:14:17 62° E 18:19:06 13° NNE
CZ-2C R/B 4.0 18:09:49 10° SSW 18:14:30 39° W 18:19:18 10° NNW
NOSS 3-4 (A) 3.8 18:07:58 10° NNW 18:14:53 59° NE 18:22:13 10° SE
NOSS 3-4 (C) 3.8 18:08:04 10° NNW 18:14:59 59° NE 18:22:19 10° SE
Meteor 2-14 Rocket 4.5 18:11:23 10° N 18:17:34 84° W 18:23:41 10° S
CZ-3B DEB 3.5 18:15:20 10° W 18:19:41 39° NNW 18:25:58 19° NE
Cosmos 2056 Rocket 3.5 18:15:46 10° S 18:21:04 64° ESE 18:23:51 28° NNE
Cosmos 407 Rocket 3.8 18:16:15 10° N 18:21:05 40° ENE 18:21:58 37° E
Cosmos 1821 Rocket 3.8 18:15:55 10° N 18:22:03 80° E 18:28:09 10° S
Cosmos 921 Rocket 3.9 18:21:08 10° SW 18:25:14 47° WNW 18:28:57 13° N
Cosmos 1025 Rocket 2.9 18:20:52 10° S 18:25:14 87° E 18:28:12 21° N
NOAA 12 4.0 18:20:07 10° SSE 18:25:17 59° ENE 18:30:27 10° N
Cosmos 1605 Rocket 4.0 18:26:35 10° N 18:32:44 54° E 18:38:45 10° SSE
Cosmos 1624 Rocket 3.9 18:28:54 10° SSW 18:34:06 89° WNW 18:36:48 30° NNE
Cosmos 1371 Rocket 4.4 18:34:30 10° SSW 18:39:49 66° WNW 18:43:24 21° N
METEOR-M 4.0 18:42:59 10° SSE 18:48:19 81° ENE 18:53:41 10° N
Cosmos 1666 3.6 18:50:43 10° NNW 18:54:27 47° W 18:58:11 10° SSW
BREEZE-M R/B 4.5 18:47:53 10° W 18:56:04 39° NNW 18:57:05 36° N
GEOS 3 Rocket 3.4 19:00:07 77° NNE 19:00:07 77° NNE 19:05:02 10° NNW
Cosmos 1833 Rocket 4.5 19:03:30 10° NW 19:08:21 30° WSW 19:13:11 10° SSW
Cosmos 1727 Rocket 3.8 19:03:34 10° S 19:09:48 86° E 19:10:52 63° NNE
Cosmos 1452 Rocket 4.3 19:04:51 10° S 19:08:13 41° S 19:08:13 41° S
Cosmos 1190 Rocket 4.5 19:06:47 10° NNW 19:11:56 58° WSW 19:15:35 19° S
FALCON 9 R/B 3.2 19:04:59 10° W 19:23:19 58° SSW 19:24:36 52° SSE
Cosmos 2369 Rocket 3.8 19:48:11 10° SW 19:50:47 28° SW 19:50:47 28° SW
